Simultaneous Nadir Overpasses (SNOs) Predictions

Prediction of SNOs near US between AQUA and NPP Satellite Orbit:

Table of predicted SNOs near US for the next 10.0 days since TLE Epoch: 9/28/2013
Index Date (AQUA) Time (AQUA) AQUA Lat,Lon Date (NPP) Time (NPP) NPP Lat,Lon Distance(km) Time Diff (sec)
1 09/29/2013 06:30:30 46.55, -65.03 09/29/2013 06:31:22 46.96, -66.97 154.71 52
2 09/29/2013 08:08:26 49.94, -88.40 09/29/2013 08:11:52 50.42, -90.86 182.91 206
3 09/29/2013 09:47:20 49.88,-113.15 09/29/2013 09:53:21 50.47,-116.21 227.69 361
4 10/01/2013 19:06:36 49.98, -92.61 10/01/2013 19:02:12 49.67, -94.52 141.63 264
5 10/01/2013 20:45:29 49.98,-117.33 10/01/2013 20:43:40 49.55,-119.84 186.90 109
6 10/04/2013 08:35:16 20.10,-101.93 10/04/2013 08:26:57 20.14,-102.08 16.15 499
7 10/04/2013 10:11:38
